Location: Newark
(52.9447°N, 5.7817°E)
Time: 10:34:27
(UTC+00:00)

ISS - Pass Details

Date: 29 September 2020
Orbit: 418 x 420 km, 51.6° (Epoch: 21 October)

Event Time Altitude Azimuth Distance (km) Brightness Sun altitude
Rises 19:03:39 0° 278° (W) 2,367 1.7 -16.6°
Reaches altitude 10° 19:05:47 10° 273° (W) 1,502 0.2 -16.9°
Maximum altitude 19:09:04 50° 197° (SSW) 545 -3.3 -17.4°
Enters shadow 19:09:43 42° 158° (SSE) 614 -3.3 -17.5°
